Location: Vale
(35.4830°N, 81.3830°W)
Time: 02:55:46
(UTC-05:00)

Amateur Radio Satellites - All Passes

Search period start: 21 November 2017 02:25
Search period end: 22 November 2017 02:25
Location: Vale, 35.4830°N, 81.3830°W

Satellite Date Start Highest point End Downlink Frequencies (MHz)
Time Altitude Azimuth
UKube-1 21 Nov 02:27:18 02:31:01 28° 263° (W) 02:34:46 .
BEESAT 2 21 Nov 02:41:30 02:43:52 15° 109° (ESE) 02:46:16 435.950
ISS 21 Nov 03:03:39 03:05:48 16° 29° (NNE) 03:07:58 437.550
BEESAT 3 21 Nov 03:06:25 03:10:20 62° 300° (WNW) 03:14:20 437.485
BEESAT 21 Nov 03:14:10 03:18:56 77° 257° (WSW) 03:23:44 436.000
ITUPSAT 1 21 Nov 03:23:44 03:28:28 62° 259° (WSW) 03:33:13 437.325
AO-85 21 Nov 03:26:16 03:28:45 17° 109° (ESE) 03:31:17 145.980
M-CUBED/EXP-1 PRIME 21 Nov 03:31:46 03:36:19 66° 289° (WNW) 03:40:55 437.505
Oscar 19 21 Nov 03:33:27 03:35:46 13° 297° (WNW) 03:38:04 437.125/150
RS-15 21 Nov 03:37:05 03:48:39 54° 53° (NE) 03:59:32 29.354- 29.394
MOZHAYETS 4 21 Nov 03:39:41 03:43:40 30° 263° (W) 03:47:40
ITAMSAT 1 21 Nov 03:43:53 03:48:51 43° 100° (E) 03:53:44 435.822/435.867
CUBESAT XI-V 21 Nov 03:49:44 03:54:17 72° 76° (ENE) 03:58:53 437.345
nSIGHT-1 21 Nov 03:56:04 03:59:14 58° 41° (NE) 04:02:22 .
Gurwin Techsat 1B 21 Nov 03:57:03 03:58:55 12° 298° (WNW) 04:00:47 435.225
KKS-1 21 Nov 03:57:25 04:00:32 19° 67° (ENE) 04:03:40 437.445
AO-7 21 Nov 04:08:43 04:17:07 86° 107° (ESE) 04:25:30 .
BEESAT 2 21 Nov 04:17:31 04:21:15 37° 304° (NW) 04:25:01 435.950
STARS 21 Nov 04:23:16 04:25:31 14° 65° (ENE) 04:27:46 437.465
YUBILEINY 21 Nov 04:26:31 04:32:21 20° 81° (E) 04:38:13 435.215
DOVE 4 21 Nov 04:28:54 04:32:39 20° 93° (E) 04:36:14 437.250
ISS 21 Nov 04:39:19 04:42:31 55° 225° (SW) 04:45:41 437.550
AO-85 21 Nov 05:05:21 05:08:49 31° 306° (NW) 05:12:24 145.980
LilacSat-2 21 Nov 05:20:51 05:21:18 10° 92° (E) 05:21:46 437.200
ITAMSAT 1 21 Nov 05:24:11 05:27:56 20° 294° (WNW) 05:31:41 435.822/435.867
XW-2F 21 Nov 05:29:14 05:30:28 11° 93° (E) 05:31:41 145.980 - 146.000
KKS-1 21 Nov 05:32:43 05:36:47 34° 262° (W) 05:40:54 437.445
RS-15 21 Nov 05:50:11 06:00:36 41° 254° (WSW) 06:10:36 29.354- 29.394
KAITUO 1B 21 Nov 05:56:00 05:58:47 20° 95° (E) 06:01:35 145.475/437.950
STARS 21 Nov 05:57:07 06:01:24 48° 260° (W) 06:05:42 437.465
AO-7 21 Nov 06:03:20 06:08:50 20° 305° (NW) 06:14:22 .
DOVE 4 21 Nov 06:05:39 06:10:25 39° 289° (WNW) 06:14:58 437.250
XW-2D 21 Nov 06:09:48 06:13:29 45° 99° (E) 06:17:08 145.860 - 145.880
HO-68 21 Nov 06:17:16 06:22:13 20° 93° (E) 06:27:08 435.675
STRAND 1 21 Nov 06:18:17 06:22:34 27° 68° (ENE) 06:26:50 437.568
YUBILEINY 21 Nov 06:19:26 06:28:08 73° 278° (W) 06:36:58 435.215
XW-2B 21 Nov 06:24:31 06:28:19 70° 101° (E) 06:32:08 145.730 - 145.750
NUDT-PHONESAT 21 Nov 06:40:05 06:43:48 76° 102° (ESE) 06:47:31 437.300
SO-50 21 Nov 06:41:27 06:45:48 39° 55° (NE) 06:50:13 436.795
XW-2C 21 Nov 06:50:13 06:53:54 50° 285° (WNW) 06:57:36 145.795 - 145.815
CUTE 1.7 + AOD 2 21 Nov 06:51:37 06:55:23 30° 97° (E) 06:59:08 437.475
LilacSat-2 21 Nov 06:52:06 06:55:44 43° 286° (WNW) 06:59:24 437.200
CUTE-I 21 Nov 06:53:54 06:59:19 85° 282° (WNW) 07:04:39 437.470
XW-2F 21 Nov 07:01:09 07:04:41 38° 286° (WNW) 07:08:14 145.980 - 146.000
UWE-3 21 Nov 07:08:57 07:10:57 13° 93° (E) 07:12:55 435.000/436.395/437.385
SEEDS 21 Nov 07:22:07 07:26:07 40° 98° (E) 07:30:07 437.485
KAITUO 1B 21 Nov 07:29:42 07:32:39 22° 289° (WNW) 07:35:37 145.475/437.950
AAUSAT CUBESAT 2 21 Nov 07:29:53 07:32:59 20° 95° (E) 07:36:05 437.432
FO-29 21 Nov 07:31:42 07:37:38 38° 67° (ENE) 07:44:14 435.910
XW-2D 21 Nov 07:46:26 07:47:11 10° 293° (WNW) 07:47:56 145.860 - 145.880
CUBEBUG 2 21 Nov 07:46:30 07:50:40 77° 103° (ESE) 07:54:47 437.445
AO-73 21 Nov 07:49:46 07:52:38 18° 95° (E) 07:55:31 145.935
STRAND 1 21 Nov 07:57:03 08:01:35 31° 263° (W) 08:06:08 437.568
HO-68 21 Nov 08:03:17 08:10:24 67° 288° (WNW) 08:17:28 435.675
XW-2A 21 Nov 08:03:28 08:06:48 63° 100° (E) 08:10:08 145.665 - 145.685
Oscar 11 21 Nov 08:06:11 08:09:18 19° 94° (E) 08:12:25 .
SO-50 21 Nov 08:22:34 08:25:59 20° 250° (WSW) 08:29:26 436.795
YUBILEINY 21 Nov 08:23:39 08:26:33 12° 298° (WNW) 08:29:28 435.215
CUTE 1.7 + AOD 2 21 Nov 08:27:54 08:30:59 20° 291° (WNW) 08:34:03 437.475
ZACube-1 21 Nov 08:33:46 08:37:55 75° 102° (ESE) 08:42:06 437.345
UWE-3 21 Nov 08:43:41 08:47:32 39° 287° (WNW) 08:51:24 435.000/436.395/437.385
SEEDS 21 Nov 08:59:05 09:01:25 15° 293° (WNW) 09:03:45 437.485
PCSat 21 Nov 09:03:09 09:07:39 26° 54° (NE) 09:12:06 145.827
AAUSAT CUBESAT 2 21 Nov 09:04:50 09:08:22 27° 289° (WNW) 09:11:54 437.432
Max Valier Satellite 21 Nov 09:08:57 09:09:47 11° 93° (E) 09:10:37 145.860
FO-29 21 Nov 09:16:48 09:22:35 35° 266° (W) 09:29:05 435.910
UNISAT 6 21 Nov 09:20:21 09:24:55 66° 75° (ENE) 09:29:23 437.425
TIGRISAT 21 Nov 09:24:42 09:29:15 67° 76° (ENE) 09:33:44 435.000
AO-73 21 Nov 09:25:16 09:28:52 29° 288° (WNW) 09:32:28 145.935
FALCONSAT 3 21 Nov 09:28:48 09:32:04 30° 157° (SSE) 09:35:20 435.103
DELFI C3 21 Nov 09:35:03 09:38:49 39° 98° (E) 09:42:33 145.870
Oscar 11 21 Nov 09:41:39 09:45:26 30° 288° (WNW) 09:49:12 .
HO-68 21 Nov 09:55:23 09:56:45 11° 306° (NW) 09:58:07 435.675
PRISM 21 Nov 10:19:18 10:23:24 75° 259° (W) 10:27:33 437.425
EO-88 21 Nov 10:38:19 10:41:56 61° 284° (WNW) 10:45:32 145.990 - 145.960
DUCHIFAT 1 21 Nov 10:38:58 10:40:34 12° 66° (ENE) 10:42:09 145.980
Max Valier Satellite 21 Nov 10:40:18 10:43:43 37° 286° (WNW) 10:47:08 145.860
AIST 2D 21 Nov 10:40:24 10:43:43 46° 75° (ENE) 10:47:04 435.315
EO-79 21 Nov 10:44:51 10:47:50 19° 69° (ENE) 10:50:49 145.935-145.965
PCSat 21 Nov 10:46:06 10:51:07 39° 250° (WSW) 10:56:06 145.827
NANOSAT C BR1 21 Nov 10:48:09 10:51:02 18° 68° (ENE) 10:53:55 145.865
ESTCUBE 1 21 Nov 10:54:55 10:57:47 16° 94° (E) 11:00:36 437.505/2401.250
POLYITAN 1 21 Nov 10:59:29 11:03:05 28° 71° (ENE) 11:06:41 437.675
LO-87 21 Nov 11:02:57 11:05:53 24° 97° (E) 11:08:48 145.935 - 145.965
FALCONSAT 3 21 Nov 11:07:15 11:10:57 79° 169° (S) 11:14:39 435.103
DELFI C3 21 Nov 11:11:15 11:13:10 13° 293° (WNW) 11:15:03 145.870
QB50P2 21 Nov 11:22:08 11:26:18 59° 75° (ENE) 11:30:30 145.880/145.840
BEESAT 3 21 Nov 11:26:03 11:29:25 26° 54° (NE) 11:32:43 437.485
BUGSAT 1 21 Nov 11:31:32 11:32:41 11° 66° (ENE) 11:33:51 437.445
Gurwin Techsat 1B 21 Nov 11:57:38 11:58:30 10° 61° (ENE) 11:59:22 435.225
AO-85 21 Nov 12:00:09 12:01:24 11° 45° (NE) 12:02:40 145.980
SPROUT 21 Nov 12:10:36 12:14:08 25° 96° (E) 12:17:39 437.525
DUCHIFAT 1 21 Nov 12:11:38 12:15:44 50° 260° (W) 12:19:50 145.980
EO-79 21 Nov 12:19:35 12:23:20 30° 262° (W) 12:27:06 145.935-145.965
NANOSAT C BR1 21 Nov 12:22:41 12:26:28 32° 263° (W) 12:30:15 145.865
ESTCUBE 1 21 Nov 12:30:27 12:34:40 39° 288° (WNW) 12:38:53 437.505/2401.250
POLYITAN 1 21 Nov 12:35:38 12:38:48 20° 265° (W) 12:41:59 437.675
LO-87 21 Nov 12:36:56 12:39:03 15° 291° (WNW) 12:41:09 145.935 - 145.965
BEESAT 2 21 Nov 12:37:28 12:41:20 45° 57° (ENE) 12:45:09 435.950
O/OREOS (USA 219) 21 Nov 12:39:58 12:43:28 22° 101° (E) 12:46:58 437.305
FALCONSAT 3 21 Nov 12:46:21 12:50:02 85° 190° (S) 12:53:45 435.103
VELOX 1 21 Nov 12:50:01 12:54:18 46° 100° (E) 12:58:33 145.980
BUGSAT 1 21 Nov 13:03:24 13:07:32 54° 260° (W) 13:11:38 437.445
BEESAT 3 21 Nov 13:03:50 13:06:46 20° 249° (WSW) 13:09:40 437.485
Oscar 19 21 Nov 13:05:40 13:10:44 73° 75° (ENE) 13:15:51 437.125/150
AO-7 21 Nov 13:15:38 13:20:41 18° 54° (NE) 13:25:45 .
Gurwin Techsat 1B 21 Nov 13:32:19 13:37:38 88° 256° (WSW) 13:42:59 435.225
DX 1 21 Nov 13:35:08 13:39:01 30° 98° (E) 13:42:51 434.975-435.025
AO-85 21 Nov 13:37:36 13:42:25 82° 60° (ENE) 13:47:33 145.980
SPROUT 21 Nov 13:46:35 13:49:51 22° 291° (WNW) 13:53:08 437.525
M-CUBED/EXP-1 PRIME 21 Nov 14:14:48 14:18:16 87° 253° (WSW) 14:22:02 437.505
UKube-1 21 Nov 14:16:25 14:20:40 56° 101° (E) 14:24:54 .
BEESAT 2 21 Nov 14:16:58 14:18:36 12° 252° (WSW) 14:20:13 435.950
O/OREOS (USA 219) 21 Nov 14:18:35 14:22:39 30° 296° (WNW) 14:26:43 437.305
50 SAT 21 Nov 14:19:27 14:22:35 47° 284° (WNW) 14:25:39 437.505
JUGNU 21 Nov 14:23:34 14:25:44 12° 168° (SSE) 14:27:54 437.505
FALCONSAT 3 21 Nov 14:25:34 14:28:59 36° 201° (SSW) 14:32:24 435.103
VELOX 1 21 Nov 14:27:54 14:30:18 14° 294° (WNW) 14:32:42 145.980
Oscar 19 21 Nov 14:49:35 14:50:31 10° 269° (W) 14:51:26 437.125/150
ITAMSAT 1 21 Nov 14:58:42 15:03:42 49° 72° (ENE) 15:08:45 435.822/435.867
AO-7 21 Nov 15:04:00 15:12:17 88° 72° (ENE) 15:20:38 .
NO-84 21 Nov 15:11:18 15:14:51 66° 315° (NW) 15:18:44 435.350 FM
DX 1 21 Nov 15:11:44 15:14:57 20° 292° (WNW) 15:18:10 434.975-435.025
BEESAT 21 Nov 15:17:30 15:21:47 33° 98° (E) 15:26:03 436.000
ITUPSAT 1 21 Nov 15:27:14 15:31:44 41° 99° (E) 15:36:13 437.325
DOVE 4 21 Nov 15:31:31 15:34:29 16° 65° (ENE) 15:37:31 437.250
MOZHAYETS 4 21 Nov 15:36:46 15:41:21 78° 102° (ESE) 15:45:55
CUBESAT XI-V 21 Nov 15:49:47 15:53:28 22° 95° (E) 15:57:08 437.345
UKube-1 21 Nov 15:54:46 15:56:09 11° 296° (WNW) 15:57:32 .
JUGNU 21 Nov 16:10:23 16:13:58 17° 178° (S) 16:17:33 437.505
YUBILEINY 21 Nov 16:33:32 16:42:04 50° 78° (ENE) 16:50:31 435.215
CUTE-I 21 Nov 16:36:02 16:38:33 13° 62° (ENE) 16:41:04 437.470
ITAMSAT 1 21 Nov 16:40:02 16:43:23 17° 266° (W) 16:46:45 435.822/435.867
HO-68 21 Nov 16:46:43 16:48:32 11° 54° (NE) 16:50:22 435.675
XW-2D 21 Nov 16:49:19 16:51:21 14° 69° (ENE) 16:53:24 145.860 - 145.880
NO-84 21 Nov 16:51:36 16:52:57 11° 334° (NNW) 16:54:18 435.350 FM
BEESAT 21 Nov 16:55:43 16:59:19 22° 292° (WNW) 17:02:54 436.000
AO-7 21 Nov 17:01:20 17:05:53 16° 268° (W) 17:10:28 .
XW-2B 21 Nov 17:03:18 17:06:06 20° 71° (ENE) 17:08:55 145.730 - 145.750
ITUPSAT 1 21 Nov 17:06:02 17:09:11 18° 294° (WNW) 17:12:20 437.325
DOVE 4 21 Nov 17:06:42 17:11:33 56° 261° (W) 17:16:41 437.250
NUDT-PHONESAT 21 Nov 17:16:38 17:19:20 20° 71° (ENE) 17:22:02 437.300
KKS-1 21 Nov 17:26:05 17:30:28 54° 100° (E) 17:34:48 437.445
CUBESAT XI-V 21 Nov 17:26:42 17:30:47 31° 289° (WNW) 17:34:54 437.345
XW-2C 21 Nov 17:28:04 17:31:37 44° 75° (ENE) 17:35:11 145.795 - 145.815
LilacSat-2 21 Nov 17:30:27 17:34:06 52° 75° (ENE) 17:37:46 437.200
XW-2F 21 Nov 17:38:17 17:41:55 56° 76° (ENE) 17:45:34 145.980 - 146.000
CUTE 1.7 + AOD 2 21 Nov 17:42:27 17:44:48 15° 67° (ENE) 17:47:10 437.475
STARS 21 Nov 17:49:22 17:53:25 36° 99° (E) 17:57:26 437.465
RS-15 21 Nov 17:55:17 18:06:38 47° 108° (ESE) 18:18:02 29.354- 29.394
SRMSAT 21 Nov 17:55:55 17:59:00 14° 171° (S) 18:02:06 437.500
JUGNU 21 Nov 17:59:06 18:02:12 15° 188° (S) 18:05:18 437.505
KAITUO 1B 21 Nov 18:05:23 18:09:03 79° 258° (WSW) 18:12:45 145.475/437.950
SEEDS 21 Nov 18:11:25 18:14:21 19° 69° (ENE) 18:17:19 437.485
CUTE-I 21 Nov 18:12:35 18:17:55 71° 258° (WSW) 18:23:18 437.470
XW-2D 21 Nov 18:21:55 18:25:14 30° 263° (W) 18:28:33 145.860 - 145.880
HO-68 21 Nov 18:27:49 18:34:56 69° 72° (ENE) 18:42:05 435.675
YUBILEINY 21 Nov 18:30:58 18:38:25 32° 275° (W) 18:45:50 435.215
XW-2A 21 Nov 18:33:14 18:34:35 12° 69° (ENE) 18:35:57 145.665 - 145.685
STRAND 1 21 Nov 18:34:11 18:35:19 11° 91° (E) 18:36:28 437.568
XW-2B 21 Nov 18:37:18 18:40:08 21° 265° (W) 18:43:00 145.730 - 145.750
CUBEBUG 2 21 Nov 18:40:57 18:45:19 43° 74° (ENE) 18:49:35 437.445
AO-73 21 Nov 18:44:32 18:45:18 10° 66° (ENE) 18:46:04 145.935
NUDT-PHONESAT 21 Nov 18:50:19 18:53:02 20° 265° (W) 18:55:47 437.300
Oscar 11 21 Nov 19:00:19 19:01:11 11° 65° (ENE) 19:02:03 .
KKS-1 21 Nov 19:04:37 19:06:30 13° 295° (WNW) 19:08:23 437.445
CUTE 1.7 + AOD 2 21 Nov 19:16:21 19:20:16 38° 262° (W) 19:24:12 437.475
ZACube-1 21 Nov 19:26:19 19:30:21 38° 73° (ENE) 19:34:18 437.345
STARS 21 Nov 19:26:34 19:29:26 17° 293° (WNW) 19:32:17 437.465
UWE-3 21 Nov 19:36:39 19:41:08 78° 258° (WSW) 19:45:31 435.000/436.395/437.385
ISS 21 Nov 19:41:29 19:43:50 18° 129° (SE) 19:46:11 437.550
SRMSAT 21 Nov 19:43:41 19:47:24 17° 181° (S) 19:51:10 437.500
SEEDS 21 Nov 19:46:11 19:49:47 29° 263° (W) 19:53:27 437.485
AAUSAT CUBESAT 2 21 Nov 19:50:48 19:54:51 63° 259° (W) 19:58:58 437.432
XW-2A 21 Nov 20:04:08 20:06:59 27° 263° (W) 20:09:52 145.665 - 145.685
RS-15 21 Nov 20:07:07 20:19:00 52° 308° (NW) 20:30:52 29.354- 29.394
STRAND 1 21 Nov 20:09:51 20:14:57 72° 285° (WNW) 20:20:01 437.568
AO-73 21 Nov 20:16:45 20:21:01 58° 260° (W) 20:25:13 145.935
HO-68 21 Nov 20:18:18 20:23:08 19° 267° (W) 20:28:00 435.675
DELFI C3 21 Nov 20:18:18 20:20:37 15° 68° (ENE) 20:22:58 145.870
CUBEBUG 2 21 Nov 20:19:25 20:22:03 15° 267° (W) 20:24:39 437.445
FO-29 21 Nov 20:28:48 20:36:16 47° 97° (E) 20:43:11 435.910
nSIGHT-1 21 Nov 20:30:57 20:34:10 85° 323° (NW) 20:37:23 .
Oscar 11 21 Nov 20:32:32 20:36:46 59° 260° (W) 20:41:00 .
SO-50 21 Nov 20:53:28 20:57:01 23° 111° (ESE) 21:00:34 436.795
ZACube-1 21 Nov 21:04:13 21:06:42 15° 266° (W) 21:09:10 437.345
EO-88 21 Nov 21:12:47 21:15:59 31° 73° (ENE) 21:19:13 145.990 - 145.960
Max Valier Satellite 21 Nov 21:15:26 21:18:59 52° 76° (ENE) 21:22:33 145.860
UNISAT 6 21 Nov 21:16:16 21:18:55 16° 94° (E) 21:21:32 437.425
ISS 21 Nov 21:17:05 21:20:07 34° 323° (NW) 21:23:08 437.550
TIGRISAT 21 Nov 21:20:26 21:23:05 16° 94° (E) 21:25:45 435.000
SRMSAT 21 Nov 21:33:11 21:35:49 13° 191° (SSW) 21:38:28 437.500
NO-84 21 Nov 21:46:41 21:50:13 24° 36° (NE) 21:53:42 435.350 FM
DELFI C3 21 Nov 21:51:28 21:55:02 33° 262° (W) 21:58:39 145.870
ESTCUBE 1 21 Nov 21:53:26 21:54:31 11° 64° (ENE) 21:55:37 437.505/2401.250
PRISM 21 Nov 22:04:21 22:07:14 18° 95° (E) 22:10:06 437.425
nSIGHT-1 21 Nov 22:09:29 22:10:49 12° 335° (NNW) 22:12:10 .
FO-29 21 Nov 22:14:08 22:20:55 34° 295° (WNW) 22:27:20 435.910
RS-15 21 Nov 22:27:42 22:35:25 18° 338° (NNW) 22:43:03 29.354- 29.394
SO-50 21 Nov 22:33:20 22:37:17 30° 307° (NW) 22:41:16 436.795
EO-88 21 Nov 22:48:07 22:49:42 12° 267° (W) 22:51:16 145.990 - 145.960
UNISAT 6 21 Nov 22:51:50 22:55:43 34° 288° (WNW) 22:59:33 437.425
O/OREOS (USA 219) 21 Nov 22:52:21 22:56:08 26° 62° (ENE) 22:59:54 437.305
TIGRISAT 21 Nov 22:56:01 22:59:51 34° 288° (WNW) 23:03:40 435.000
SPROUT 21 Nov 23:01:59 23:04:15 14° 67° (ENE) 23:06:31 437.525
LO-87 21 Nov 23:08:01 23:11:36 63° 260° (W) 23:15:11 145.935 - 145.965
QB50P2 21 Nov 23:12:00 23:13:31 12° 92° (E) 23:15:02 145.880/145.840
NO-84 21 Nov 23:23:39 23:27:43 44° 233° (SW) 23:31:42 435.350 FM
ESTCUBE 1 21 Nov 23:26:18 23:30:43 63° 259° (WSW) 23:35:11 437.505/2401.250
PRISM 21 Nov 23:38:51 23:42:30 30° 289° (WNW) 23:46:06 437.425
AIST 2D 21 Nov 23:40:43 23:44:15 86° 287° (WNW) 23:47:47 435.315
PCSat 21 Nov 23:41:17 23:46:18 41° 110° (ESE) 23:51:21 145.827
VELOX 1 21 Nov 23:44:18 23:48:04 28° 70° (ENE) 23:51:52 145.980
DUCHIFAT 1 21 Nov 23:58:37 00:02:16 29° 97° (E) 00:05:53 145.980
EO-79 22 Nov 00:06:31 00:10:36 50° 100° (E) 00:14:39 145.935-145.965
NANOSAT C BR1 22 Nov 00:09:17 00:13:20 47° 100° (E) 00:17:20 145.865
POLYITAN 1 22 Nov 00:21:57 00:26:09 79° 102° (ESE) 00:30:19 437.675
DX 1 22 Nov 00:28:16 00:31:19 19° 67° (ENE) 00:34:23 434.975-435.025
O/OREOS (USA 219) 22 Nov 00:31:43 00:35:25 25° 258° (WSW) 00:39:05 437.305
SPROUT 22 Nov 00:35:39 00:39:44 43° 261° (W) 00:43:49 437.525
50 SAT 22 Nov 00:43:35 00:46:14 24° 72° (ENE) 00:48:55 437.505
QB50P2 22 Nov 00:45:29 00:49:31 46° 286° (WNW) 00:53:31 145.880/145.840
BUGSAT 1 22 Nov 00:48:29 00:51:47 24° 96° (E) 00:55:04 437.445
RS-15 22 Nov 00:48:31 00:55:11 16° 16° (NNE) 01:01:41 29.354- 29.394
UKube-1 22 Nov 01:07:50 01:11:39 31° 71° (ENE) 01:15:29 .
Oscar 19 22 Nov 01:20:32 01:25:09 32° 98° (E) 01:29:45 437.125/150
VELOX 1 22 Nov 01:21:00 01:24:27 22° 265° (W) 01:27:56 145.980
PCSat 22 Nov 01:25:23 01:29:48 25° 306° (NW) 01:34:15 145.827
DUCHIFAT 1 22 Nov 01:34:46 01:37:41 19° 291° (WNW) 01:40:35 145.980
EO-79 22 Nov 01:44:23 01:45:52 12° 294° (WNW) 01:47:21 145.935-145.965
NANOSAT C BR1 22 Nov 01:46:52 01:48:35 12° 294° (WNW) 01:50:17 145.865
Gurwin Techsat 1B 22 Nov 01:51:45 01:56:51 47° 99° (E) 02:01:57 435.225
DX 1 22 Nov 02:03:17 02:07:13 33° 262° (W) 02:11:11 434.975-435.025
ISS 22 Nov 02:12:23 02:13:16 11° 23° (NNE) 02:14:09 437.550
50 SAT 22 Nov 02:16:54 02:18:19 12° 266° (W) 02:19:46 437.505
